Wind_Speed
7 6 6 5 4 4 4 3 3 3 3 2 2 2 3 3 4 4 4 4 4 3 3 3 3 3 3 4 4 5 6 7 8 9 9 10 11 11 11 11 11 12 12 12 13 12 13 13 13 14 14 14 14 14 14 15 15 15 15 15 15 16 16 16 17 17 18 19 20 20 20 20 21 21 21 21 21 21 22 22 22 23 24 25 26 28 29 30
8 8 7 7 7 7 7 7 6 5 5 4 4 4 4 4 4 4 5 5 6 6 6 6 6 6 6 6 6 7 8 9 9 10 11 12 12 12 12 13 13 14 14 14 14 14 14 14 15 15 15 15 15 15 16 16 16 15 15 15 16 16 16 17 17 18 18 19 19 19 20 20 21 21 21 22 22 23 24 24 24 25 26 27 28 29 30 32
10 10 10 10 10 10 10 9 9 8 7 7 6 6 5 5 5 5 5 6 7 8 8 9 9 9 9 9 9 9 10 10 11 12 13 13 13 14 14 15 15 15 15 15 15 15 16 16 16 16 17 16 16 16 17 17 16 16 16 16 16 17 17 17 18 18 19 19 20 20 20 21 22 22 23 23 24 25 26 26 26 27 28 29 30 31 32 34
13 13 13 13 13 12 12 12 11 10 9 9 8 8 7 7 6 6 7 7 7 8 9 10 11 12 13 13 12 12 12 12 13 14 14 15 15 16 16 17 17 17 17 17 17 17 17 17 17 18 18 18 18 18 18 18 17 17 17 17 17 17 18 18 18 19 20 20 21 22 22 22 23 24 24 25 26 27 27 28 29 29 30 31 31 33 34 35
15 15 15 15 15 14 14 13 13 12 11 10 10 9 9 9 9 9 9 9 9 10 10 11 12 13 15 15 16 16 16 16 16 16 17 17 18 18 18 19 19 19 19 19 19 18 18 18 18 19 19 20 19 20 19 19 19 18 17 17 18 18 19 19 19 20 21 21 22 23 23 24 24 25 26 27 28 29 29 30 30 31 32 32 33 34 36 37
17 17 17 16 16 16 15 15 14 13 12 12 11 11 11 12 12 12 12 13 12 12 12 13 13 14 16 17 18 18 19 19 19 19 19 19 19 20 20 21 21 20 20 21 21 20 20 20 20 20 21 21 21 21 21 20 20 19 18 18 19 20 20 20 21 21 21 22 23 24 24 25 26 27 27 28 29 30 30 31 32 32 33 34 35 37 38 38
19 18 18 18 17 17 16 15 15 14 13 13 13 13 13 14 14 15 15 16 16 15 15 16 16 17 17 18 19 20 21 21 22 22 22 21 21 22 22 22 22 22 22 22 22 22 22 22 22 22 22 23 22 22 22 22 21 20 19 20 20 21 22 22 22 22 23 23 24 25 26 26 27 28 29 30 31 31 32 33 33 34 35 36 37 39 39 40
20 19 18 18 17 16 16 15 15 15 14 14 15 15 15 16 16 17 17 18 18 18 18 19 19 19 20 20 21 21 22 23 24 24 24 24 24 24 23 23 24 24 24 24 23 23 23 23 23 23 23 24 23 23 23 22 22 21 21 21 22 22 23 23 23 24 24 25 26 27 28 28 28 29 30 31 32 33 34 34 35 36 36 38 39 40 41 41
19 18 18 17 16 16 15 15 15 15 15 15 16 16 16 17 18 19 19 20 21 21 21 21 21 22 22 23 23 23 24 24 25 26 26 27 26 26 25 25 25 25 25 25 25 24 24 24 24 24 24 25 25 25 24 23 23 23 23 23 23 24 24 25 25 26 26 27 27 28 30 31 31 32 33 33 34 36 36 37 37 37 38 39 41 41 42 42
17 17 16 16 16 15 15 16 16 16 16 16 17 17 18 19 20 20 21 22 22 23 23 23 24 25 25 25 26 26 26 26 26 26 27 28 29 29 28 27 26 26 26 26 26 25 25 24 25 25 25 26 26 26 25 25 24 24 24 25 25 25 25 26 27 28 28 29 29 30 32 33 34 35 35 36 37 38 38 38 38 38 39 41 42 42 42 43
16 16 16 16 16 16 16 16 16 16 17 17 18 19 19 20 20 21 22 22 23 23 24 24 25 26 26 27 28 28 29 28 28 28 28 29 30 31 30 29 27 27 27 27 27 26 25 25 25 25 26 26 27 27 26 26 26 26 26 26 26 27 27 28 28 29 30 30 31 31 33 34 36 37 37 38 39 39 40 40 39 39 41 42 42 43 43 44
16 16 16 16 16 16 16 16 16 16 17 18 19 19 20 20 20 20 21 22 22 23 24 25 25 26 26 27 27 28 29 29 29 29 29 29 30 31 32 31 29 28 27 27 27 26 26 26 26 26 26 27 27 28 28 27 27 27 27 27 28 28 29 29 29 30 31 32 32 33 33 34 36 38 38 39 40 41 42 42 41 41 42 43 43 43 44 45
16 16 16 16 15 15 15 15 15 16 17 17 18 18 18 18 19 19 20 22 23 24 25 25 26 25 25 25 25 25 26 27 28 28 28 29 30 31 32 32 30 28 28 27 27 27 26 26 26 26 27 27 28 29 29 29 29 29 29 29 29 29 30 30 31 31 32 33 33 34 34 33 36 38 38 39 40 42 43 43 43 43 44 44 44 45 46 47
15 14 14 14 13 13 13 14 14 14 15 15 15 16 16 17 19 20 21 23 24 25 26 27 27 26 25 24 23 23 23 24 25 26 27 28 29 31 31 32 31 29 28 28 28 27 27 26 26 27 27 28 29 29 30 30 30 30 30 30 30 30 31 31 32 32 33 35 34 35 36 34 36 39 39 40 41 43 44 45 45 45 46 46 46 47 48 49
12 12 12 11 11 11 11 11 11 12 13 13 15 16 17 19 20 22 24 25 27 27 28 28 29 28 26 24 23 22 22 22 23 24 25 26 28 29 29 30 30 29 29 29 28 28 27 27 27 28 28 29 29 30 30 30 30 30 31 31 31 31 31 32 32 33 35 36 35 37 37 35 37 40 40 41 43 44 45 46 47 48 49 49 49 50 51 52
9 8 8 8 8 9 9 10 11 12 13 15 17 18 20 22 23 25 26 28 28 29 29 29 30 29 26 24 22 21 21 21 21 23 24 24 25 26 27 27 28 28 29 29 29 28 27 27 27 28 28 29 30 30 31 31 31 31 32 32 32 32 32 32 33 34 36 37 36 37 38 37 38 40 41 43 44 45 46 47 49 50 51 51 51 52 53 53
5 5 5 6 7 8 10 11 13 14 16 18 19 21 23 25 27 28 29 30 30 30 30 30 30 29 27 25 23 22 21 20 20 21 22 23 23 23 24 25 26 28 29 29 29 28 27 26 26 27 27 29 30 31 31 31 31 32 33 33 33 33 33 33 34 36 37 37 38 39 39 39 41 42 43 44 46 47 48 49 50 52 52 53 53 54 54 54
3 4 5 7 8 10 11 13 14 16 18 19 21 23 25 28 29 30 31 32 32 32 31 31 31 29 27 26 24 22 21 20 20 20 21 22 22 22 23 25 26 27 28 28 28 27 26 26 26 26 27 29 29 30 31 31 31 32 33 34 34 34 34 34 36 38 38 39 40 41 41 42 44 45 45 47 48 49 50 51 52 53 54 55 55 55 55 55
3 5 6 8 9 10 12 14 15 17 19 21 23 25 28 30 31 33 34 34 34 34 33 31 30 29 27 26 23 22 21 20 19 19 20 20 21 22 23 24 25 26 26 26 26 26 25 25 25 26 28 29 29 30 31 31 31 32 34 35 35 35 35 36 39 40 40 41 42 44 45 45 47 48 48 49 50 51 51 52 53 53 54 55 55 55 56 56
4 6 7 8 10 11 13 15 17 19 21 23 26 27 29 31 33 34 35 35 35 35 34 31 30 28 27 25 23 22 21 20 19 18 19 20 21 22 22 22 23 23 23 23 23 23 24 24 25 26 28 29 29 30 30 31 32 34 35 36 37 37 37 39 41 41 42 44 45 46 48 48 49 50 50 51 52 53 53 53 54 54 55 55 55 55 55 55
5 6 8 10 12 13 15 17 19 21 23 25 27 28 30 31 32 33 33 34 35 35 33 30 28 26 25 24 23 21 20 19 18 17 18 19 20 20 21 22 23 23 22 22 22 22 23 24 25 26 27 28 29 29 30 32 33 35 36 37 38 39 40 41 42 43 44 45 46 48 49 50 50 50 52 53 53 54 54 55 55 55 55 55 55 55 54 54
6 8 9 11 13 15 17 19 21 22 24 26 27 28 29 30 31 32 31 32 33 34 30 27 24 22 22 21 20 19 18 18 17 16 17 18 19 19 19 20 21 21 22 22 22 23 24 25 26 27 28 29 30 31 32 33 35 36 37 39 40 41 42 43 44 45 46 47 48 49 50 51 51 51 53 53 54 54 55 55 55 56 55 55 54 53 53 53
7 9 11 12 14 16 18 20 21 22 24 24 25 26 27 28 29 30 30 30 31 31 27 23 20 19 18 18 17 17 17 17 16 15 16 17 17 18 18 19 20 21 22 23 23 24 25 26 27 28 29 30 31 32 34 35 36 38 39 41 42 43 44 44 45 46 47 48 49 50 52 52 52 53 54 54 54 54 54 55 55 55 54 54 53 52 52 52
8 10 12 14 16 18 19 20 21 21 22 22 22 23 23 24 25 27 28 28 26 24 22 18 15 14 14 14 15 16 16 16 16 16 16 17 17 18 19 20 21 22 22 23 24 25 26 27 28 29 30 31 33 34 36 37 38 40 41 42 43 44 45 45 46 46 47 48 50 51 53 54 54 54 54 55 55 55 55 54 54 53 53 52 52 52 51 50
9 11 13 15 17 18 19 20 19 19 20 19 19 20 20 21 23 25 26 24 21 18 15 13 11 10 11 12 13 13 14 15 16 16 17 18 18 19 19 20 21 22 22 24 25 26 27 28 29 31 32 33 35 36 37 39 39 40 42 43 43 44 45 45 46 47 48 49 50 51 53 54 55 55 56 56 56 56 55 54 53 52 51 51 50 50 49 48
10 12 14 15 17 18 18 18 17 18 17 16 16 18 19 20 21 22 23 20 16 13 10 9 8 8 9 10 11 12 13 14 15 17 18 18 19 20 20 20 21 21 22 23 25 27 28 30 31 32 33 34 35 37 38 39 40 40 41 42 43 44 45 45 46 48 49 50 50 51 53 56 57 57 57 56 55 54 53 52 51 51 50 50 49 48 48 47
11 13 14 15 16 17 16 16 16 16 15 14 15 17 18 18 18 19 19 16 13 10 7 6 7 7 7 9 11 12 12 13 14 15 16 17 18 19 20 20 21 22 23 24 26 27 28 29 31 32 33 34 35 36 38 39 40 41 41 42 43 44 45 45 46 48 49 50 50 51 53 56 57 57 56 55 53 52 51 50 50 49 49 49 48 48 47 47
11 13 14 14 15 15 15 14 14 14 14 13 14 16 16 17 15 14 14 12 10 9 7 5 6 7 8 9 10 12 12 14 14 15 16 17 18 20 21 22 22 23 24 25 26 27 28 30 31 32 33 34 35 36 38 39 40 41 42 42 43 44 45 46 47 48 50 52 52 52 53 55 56 55 53 51 51 50 49 49 48 48 48 48 48 47 47 47
11 12 13 13 14 14 13 13 13 14 13 13 14 15 16 16 14 11 10 9 9 8 7 7 7 9 10 10 11 12 13 15 15 16 17 18 18 19 21 21 22 23 24 25 27 28 29 30 31 32 33 34 35 37 38 39 40 41 41 42 43 44 46 47 49 50 52 53 53 52 53 53 53 52 49 48 48 48 48 47 47 47 48 47 47 47 47 47
11 11 12 12 12 12 12 12 12 13 13 13 14 14 15 15 13 11 10 8 8 7 7 7 7 8 9 9 9 10 10 11 12 13 14 15 16 17 19 21 22 23 25 26 27 29 29 30 31 32 33 35 36 37 38 38 39 40 42 43 44 46 48 49 51 52 53 53 52 51 50 50 50 49 47 47 47 47 47 46 47 47 47 47 47 47 48 48
11 11 11 11 11 11 11 11 11 11 12 13 13 13 14 13 12 12 11 9 8 8 7 7 7 7 8 9 9 10 10 11 12 13 14 16 18 19 20 22 23 24 26 27 28 29 30 31 32 33 34 34 35 36 37 39 40 42 43 45 47 48 50 51 52 52 51 50 49 48 48 48 48 47 46 46 46 46 46 46 47 47 47 47 48 48 49 49
10 10 10 10 10 11 11 10 10 11 11 12 12 12 12 12 11 11 11 9 8 8 8 8 8 9 10 11 12 13 13 14 15 16 17 18 20 20 21 23 23 25 26 26 28 29 30 31 31 32 33 33 35 36 38 40 42 44 45 47 49 51 52 52 51 49 48 47 47 46 46 47 47 46 45 46 46 47 47 47 48 48 48 49 49 50 50 50
9 9 8 9 9 9 9 9 10 10 11 11 11 11 11 11 10 10 10 9 8 8 9 9 10 12 12 13 14 15 16 16 17 18 19 19 20 21 22 23 24 25 26 27 27 27 28 29 30 31 33 35 37 39 41 43 44 46 47 48 49 49 50 49 48 47 46 45 45 45 46 47 47 46 45 46 47 48 48 49 49 50 50 50 51 51 51 50
8 7 7 8 8 8 8 9 9 9 10 10 10 10 10 10 10 10 10 10 9 9 10 11 12 13 14 14 15 16 16 17 18 19 19 20 21 22 22 23 24 25 25 26 27 27 27 29 31 33 35 37 39 42 43 45 46 46 46 46 45 45 46 46 45 46 46 46 46 46 46 47 48 48 48 47 47 48 49 50 50 51 51 51 51 51 51 50
6 6 6 6 6 7 7 8 9 9 9 10 10 10 11 11 11 11 11 11 11 12 12 13 13 14 15 15 15 16 17 17 18 19 20 20 21 21 22 23 24 25 26 27 29 30 30 31 34 36 37 39 41 43 44 44 45 44 43 42 41 41 42 43 44 46 47 48 49 48 48 49 49 50 49 48 48 49 49 50 51 52 52 51 51 51 51 51
5 4 4 4 5 6 8 9 9 9 9 10 10 11 11 12 12 12 13 13 13 14 14 14 15 16 16 17 17 17 17 18 18 19 19 20 21 22 23 25 26 27 29 30 32 34 35 35 36 38 39 40 41 41 41 41 40 40 40 40 41 42 43 44 46 47 48 49 50 49 49 49 50 50 49 48 49 50 50 51 52 52 51 51 51 51 51 52
4 3 2 3 5 6 8 10 10 10 10 10 11 12 12 13 13 14 14 14 15 15 15 16 16 16 17 17 18 18 18 18 18 19 21 22 23 25 26 27 29 30 32 34 35 37 38 36 35 36 37 37 38 38 38 38 39 40 40 41 43 44 44 46 47 48 48 50 50 49 50 50 50 50 50 49 50 51 51 52 51 51 51 51 51 52 53 55
3 2 2 3 5 7 9 10 11 11 11 12 12 13 14 14 15 15 16 16 16 17 17 17 17 16 16 16 17 18 19 20 21 22 24 25 27 28 29 31 32 33 34 35 36 36 36 35 33 33 35 36 36 37 38 39 40 40 41 42 43 44 44 46 47 48 49 50 51 50 50 50 50 49 49 50 50 51 51 51 50 51 51 52 54 55 57 59
2 2 2 3 5 7 10 11 12 12 12 13 14 15 15 16 16 17 17 17 17 17 17 17 17 17 17 18 19 20 22 23 25 27 28 29 30 30 31 32 32 33 33 33 33 34 35 35 33 33 35 36 37 38 38 39 39 40 40 41 42 43 44 45 46 47 48 50 51 51 51 50 50 48 48 49 50 50 51 51 51 52 54 55 57 58 60 62
2 2 2 3 5 8 10 12 14 14 14 14 15 16 17 17 17 18 18 17 17 17 17 18 18 19 19 21 22 24 26 27 28 29 30 30 30 29 29 30 30 30 31 31 32 33 34 35 35 34 35 37 37 38 38 39 39 40 40 41 42 43 44 45 45 45 46 48 50 51 51 50 48 47 48 49 50 51 51 52 53 55 56 58 60 62 64 65
2 2 3 4 6 9 11 14 15 15 15 16 17 18 18 18 18 18 18 18 18 18 19 20 21 22 23 25 26 27 28 28 28 28 28 27 27 28 28 28 29 30 31 32 33 34 35 35 35 34 34 35 37 38 39 39 39 40 40 41 42 43 43 44 45 45 46 47 48 49 51 49 47 47 49 50 51 52 53 54 56 58 60 61 63 65 66 67
3 4 5 6 8 10 12 15 16 16 16 17 18 18 19 19 18 18 18 19 20 21 22 23 24 25 26 26 26 26 26 26 26 26 26 26 27 28 28 29 30 30 31 32 32 33 34 35 34 34 34 36 37 38 38 38 38 39 40 41 42 43 43 45 46 46 47 48 47 49 50 49 47 49 51 51 53 54 56 57 59 61 63 64 65 66 67 68
4 5 6 7 9 11 13 15 16 16 17 18 18 19 19 19 19 19 20 22 23 24 25 25 25 25 25 24 24 24 23 24 25 25 26 27 27 28 28 29 30 30 31 32 32 33 34 34 35 34 33 35 36 37 38 38 38 39 41 42 42 43 44 45 46 47 48 47 46 47 49 49 49 50 51 53 55 57 58 60 61 63 64 65 66 66 67 68
4 5 6 8 10 12 14 15 16 17 18 18 18 19 19 20 21 22 23 24 24 24 23 23 23 23 23 23 23 23 23 24 24 25 25 26 27 27 28 29 30 30 31 32 32 32 33 35 36 37 36 36 37 37 38 38 38 39 41 42 43 44 45 45 46 47 47 46 46 47 49 49 50 51 53 55 57 58 60 62 63 64 65 65 66 66 67 69
5 6 8 10 11 13 15 16 17 17 17 18 19 20 21 22 22 22 22 21 21 21 21 21 22 22 22 23 23 23 23 24 25 25 26 27 27 27 28 29 29 30 31 32 32 33 33 35 37 38 39 41 42 42 42 42 41 41 41 42 44 45 46 46 47 46 46 46 46 47 49 50 51 53 55 57 59 60 62 63 63 64 65 65 66 67 69 71
7 8 9 11 12 14 15 16 17 18 19 20 20 21 21 20 19 19 19 19 20 20 21 21 21 21 22 22 23 23 24 25 25 26 26 27 27 28 28 29 30 31 32 33 34 35 35 36 37 37 39 43 44 44 45 46 45 43 43 43 46 47 47 47 47 46 46 47 46 47 50 52 53 56 58 59 60 61 61 62 63 64 65 66 68 70 72 74
9 9 11 12 13 14 15 17 18 19 19 19 19 18 18 18 18 18 19 19 20 20 21 21 21 21 22 22 23 23 24 25 26 26 27 28 29 30 30 31 32 34 35 35 36 37 37 37 38 38 38 42 44 44 44 46 46 45 45 45 47 48 47 47 46 46 46 47 48 49 52 55 56 58 59 60 60 61 62 63 64 65 67 69 71 73 76 78
11 11 12 13 14 15 16 17 17 17 17 17 17 17 18 18 18 19 19 20 20 20 21 21 21 22 22 23 23 24 25 25 26 28 29 30 31 32 33 34 35 35 37 37 38 39 40 40 41 39 38 42 44 44 45 46 46 46 46 47 48 48 47 47 46 46 47 48 51 52 54 56 57 58 59 60 61 62 63 64 66 68 70 73 75 78 80 82
12 13 14 14 15 15 15 15 15 16 16 17 17 18 18 19 19 20 20 20 20 21 21 22 23 24 24 25 26 27 28 28 29 30 31 32 33 34 34 35 37 37 38 39 40 41 42 42 43 42 40 42 44 44 45 46 46 46 47 48 48 48 47 47 47 47 48 50 52 54 55 56 57 58 60 61 63 64 66 68 71 73 75 77 79 80 81 81
13 14 14 14 14 14 14 15 15 16 17 17 18 19 19 20 20 21 21 22 22 23 24 25 25 26 27 28 29 30 32 33 33 34 34 35 36 36 37 37 38 39 40 41 41 42 43 43 45 45 43 43 45 45 45 46 47 47 48 48 47 47 47 47 48 49 50 51 53 55 55 56 57 59 61 64 66 68 71 73 75 77 79 79 80 79 79 79
13 13 13 13 14 14 15 16 17 18 18 19 19 20 20 21 21 22 23 24 24 25 26 27 28 29 30 31 32 33 34 35 36 37 37 38 38 38 39 39 40 41 41 42 42 43 44 45 45 46 45 45 46 46 46 47 47 46 46 46 46 46 46 47 49 51 52 53 53 55 56 58 60 62 65 68 71 73 75 76 77 78 79 79 78 78 77 77
13 13 13 14 15 16 17 18 19 19 20 20 21 21 21 22 23 24 24 25 26 27 28 29 30 31 32 33 34 35 35 36 37 38 39 39 39 39 40 41 41 42 42 43 43 44 45 45 46 47 47 47 47 48 47 47 46 45 45 46 46 47 47 48 50 51 53 54 55 57 59 62 64 67 69 71 73 75 76 77 78 77 77 77 76 76 76 75
Wind_Direction
204 206 209 216 227 241 249 258 264 268 268 264 258 247 237 231 231 230 228 229 234 240 245 251 254 254 248 242 238 236 238 239 241 242 243 246 250 254 258 260 261 262 263 265 267 268 271 274 274 274 274 275 276 277 280 283 283 285 288 291 292 292 292 290 286 285 284 284 286 287 288 288 288 289 289 289 287 285 284 283 283 283 283 284 284 284 285 285
223 230 235 241 248 257 262 265 266 270 273 273 271 265 254 246 245 244 241 240 243 246 248 253 258 260 260 258 255 251 249 249 249 249 249 249 250 253 256 259 260 261 262 263 264 265 267 270 272 274 274 274 275 277 279 280 282 286 289 291 292 294 294 291 288 287 286 286 287 287 286 286 285 285 286 286 285 284 283 283 283 283 284 285 286 287 287 287
236 244 251 255 259 263 265 267 267 269 271 273 275 272 265 256 251 250 248 246 245 246 246 249 252 255 257 257 258 259 258 257 256 256 256 256 255 255 254 255 256 258 262 263 264 264 265 267 270 273 275 275 276 277 278 280 284 287 289 291 293 294 294 292 291 290 290 290 289 288 288 287 287 287 286 286 284 283 283 283 283 284 285 287 288 289 289 289
242 248 254 260 263 266 268 270 270 272 274 275 277 277 274 269 264 261 258 256 252 251 250 250 251 252 253 253 253 256 258 260 261 261 260 260 259 258 257 256 255 257 259 262 264 264 265 267 270 273 276 277 277 277 279 281 284 286 288 292 294 294 293 293 293 293 293 292 292 291 291 291 290 289 288 287 286 285 286 286 286 287 287 288 289 290 290 290
243 249 254 259 263 266 269 271 273 275 276 278 280 280 279 278 277 275 272 269 265 261 258 256 255 255 254 253 252 252 254 257 260 261 262 262 262 261 260 259 258 257 258 260 262 264 266 268 271 274 275 276 277 277 279 281 283 285 288 291 293 293 293 294 294 294 294 293 293 292 292 291 290 289 289 289 288 288 289 289 289 290 290 290 290 291 291 291
244 249 253 258 262 266 268 271 273 274 275 277 277 278 277 277 277 277 278 277 274 271 268 265 263 261 261 260 258 256 256 257 258 258 260 262 263 262 262 261 261 260 259 260 261 263 266 269 271 273 275 276 277 278 280 281 283 285 288 291 291 291 292 293 293 293 293 293 292 292 291 291 291 290 291 290 291 291 292 292 292 292 292 292 292 292 292 293
246 249 254 258 262 266 268 270 271 270 270 270 269 270 270 272 274 276 277 278 278 276 273 270 268 266 265 264 263 263 261 260 259 258 258 259 261 263 263 262 262 262 262 263 263 265 266 268 270 273 275 276 278 279 280 281 284 286 288 289 289 290 291 291 291 292 292 292 291 291 291 291 291 291 291 291 292 292 292 293 293 294 294 294 293 293 293 294
248 251 255 259 263 266 269 270 269 268 267 266 265 266 268 271 274 277 279 280 280 278 276 274 272 270 268 267 266 265 264 263 262 260 259 258 260 262 264 264 264 263 263 264 265 266 267 269 270 272 274 276 277 278 279 282 284 286 287 287 287 287 288 288 289 290 290 290 290 290 290 291 291 291 291 291 291 291 291 293 294 295 295 295 294 294 295 296
252 255 258 261 264 267 269 270 269 268 267 267 268 269 271 274 277 279 281 282 282 281 281 280 279 276 274 271 269 267 265 265 264 263 262 260 259 261 263 265 265 265 264 265 265 267 268 270 271 272 273 274 276 277 279 282 283 284 284 285 285 285 286 286 287 288 288 289 289 290 290 290 290 290 290 291 291 291 292 294 295 296 296 295 295 296 297 297
255 258 261 263 266 268 270 272 271 271 270 270 271 273 275 278 280 282 283 283 284 285 286 285 284 282 280 277 274 270 268 267 265 264 263 262 260 259 261 264 266 266 266 266 266 267 269 270 272 273 274 275 277 278 279 280 280 281 282 282 283 283 284 284 286 287 287 288 289 290 290 290 290 291 291 292 292 293 294 295 296 297 296 296 296 297 297 297
254 258 261 264 266 268 269 270 270 270 270 271 272 274 276 278 281 282 283 284 286 286 286 286 285 284 283 281 278 274 272 270 266 264 263 262 261 260 260 262 265 267 268 268 268 268 270 271 273 274 275 276 277 278 279 279 279 280 280 281 281 282 283 284 286 286 287 288 289 290 290 292 292 292 294 294 294 295 295 295 296 297 296 296 297 298 298 297
250 254 258 261 263 265 266 267 267 266 267 267 269 271 274 276 278 280 281 283 285 285 285 284 283 283 282 281 279 276 274 272 269 265 262 261 260 259 259 260 263 267 269 270 269 269 270 272 274 275 276 277 278 278 279 279 279 279 279 280 280 281 283 284 286 287 288 288 289 290 291 293 293 293 295 295 295 295 295 295 296 296 296 297 298 297 296 296
247 252 255 259 261 263 264 264 264 264 265 267 268 270 272 274 276 278 280 282 282 282 282 282 282 283 282 280 280 278 275 272 270 267 263 259 258 259 258 257 260 264 268 269 269 269 270 271 273 275 277 278 278 279 279 280 280 280 280 280 280 281 283 285 286 287 288 288 289 290 291 293 293 293 294 294 294 294 294 295 296 296 296 296 296 296 296 295
246 252 256 259 261 263 264 265 265 266 268 269 271 272 273 275 276 279 280 281 280 280 280 281 282 284 284 282 280 279 276 273 271 267 263 260 258 259 258 256 256 260 265 268 268 268 268 270 271 274 277 279 279 280 280 280 280 281 281 281 281 282 284 286 287 288 288 288 290 291 292 293 292 292 293 293 294 294 295 296 296 296 295 295 296 296 295 295
249 253 257 260 263 266 268 270 272 274 275 276 277 277 278 279 281 281 281 280 280 280 280 280 281 283 284 282 278 276 275 274 272 268 264 261 259 259 258 256 255 258 262 266 267 267 268 269 270 272 275 278 280 280 280 280 281 281 281 282 283 284 285 286 288 289 288 289 291 292 292 293 292 292 293 294 294 295 296 297 296 296 295 295 295 295 294 294
249 254 259 264 269 273 279 284 286 287 287 287 287 288 289 289 288 286 284 283 282 281 281 280 281 281 281 279 276 272 270 270 270 269 267 264 261 259 257 254 254 257 261 264 266 267 267 268 271 272 274 277 280 280 281 281 282 282 282 283 283 284 285 287 288 288 288 290 291 291 292 293 293 293 294 295 295 296 296 296 295 295 294 295 294 294 293 293
248 259 268 275 282 288 292 294 294 294 295 295 296 296 295 294 291 290 288 287 286 284 282 280 280 280 278 276 273 268 265 265 266 268 269 267 263 259 255 253 254 256 259 262 265 266 267 269 271 272 274 276 278 280 281 282 283 283 283 283 284 285 286 288 288 287 288 290 291 291 293 294 293 294 295 296 296 296 295 295 294 294 294 294 294 293 293 292
267 277 285 290 295 298 299 299 299 299 299 299 299 298 296 295 294 294 292 291 289 287 283 281 279 278 275 273 270 266 264 263 263 265 267 268 265 260 256 255 255 256 258 261 263 264 267 269 271 273 275 276 278 280 281 282 283 283 283 284 285 286 288 289 287 287 288 290 291 292 293 294 295 296 296 297 296 295 295 294 294 294 294 294 294 293 293 292
290 293 298 301 303 303 302 301 301 300 300 299 298 297 296 296 296 295 293 292 290 287 284 280 278 274 271 269 266 263 262 260 261 263 265 266 265 261 258 257 257 258 259 261 263 265 268 270 272 274 274 275 277 279 280 282 283 284 285 286 287 287 288 289 288 289 290 290 291 293 294 295 296 297 297 297 296 295 294 294 294 294 294 293 293 293 292 292
304 306 307 307 306 304 302 302 301 300 300 299 298 299 298 298 297 295 294 293 290 287 284 280 276 271 267 265 261 260 259 259 260 261 263 264 263 261 259 258 257 257 259 261 264 267 269 271 273 274 274 276 278 279 281 283 284 285 287 287 288 288 288 289 289 291 291 292 293 294 294 295 296 297 296 296 295 294 294 294 294 294 293 293 293 293 292 292
309 310 309 308 306 305 303 303 302 301 301 301 301 301 300 299 298 298 297 295 292 288 283 277 272 267 262 259 257 256 256 257 257 258 261 262 264 264 264 262 260 259 259 261 263 267 269 271 275 277 278 280 281 283 284 285 286 287 287 287 288 288 289 289 291 291 292 292 293 294 294 295 295 296 296 295 294 294 295 295 295 294 294 294 293 293 293 292
307 307 307 306 306 305 305 305 304 304 305 305 305 305 304 304 303 303 302 299 295 291 285 277 269 262 257 255 254 254 254 255 255 257 260 263 265 267 269 271 270 268 268 268 269 270 272 274 276 277 279 281 283 285 286 286 287 288 288 288 289 289 289 290 291 291 292 293 294 294 295 295 295 295 295 295 295 295 295 295 295 294 294 294 294 293 293 292
306 308 308 308 309 309 309 309 309 310 310 311 312 312 312 312 312 313 311 306 301 295 289 280 269 259 254 252 252 251 251 251 252 254 258 263 266 267 269 271 273 272 272 273 274 274 275 275 277 278 279 281 283 284 285 286 288 289 289 289 289 289 289 290 291 292 294 295 295 295 295 295 295 295 295 295 295 295 295 295 294 294 294 294 294 294 293 292
311 313 313 313 313 313 312 313 314 316 316 317 320 321 322 324 327 327 323 318 311 302 293 284 272 260 254 252 252 250 248 249 252 253 256 261 266 268 269 270 271 271 272 274 274 275 276 277 278 280 281 282 283 285 286 287 288 289 289 289 289 290 290 292 293 294 295 295 296 296 295 295 295 295 295 296 296 296 296 295 295 295 295 295 294 294 293 292
317 316 316 316 316 316 317 318 320 321 321 323 328 331 332 334 338 341 336 330 324 313 301 290 275 259 252 254 255 254 253 254 255 255 257 262 266 269 271 272 272 273 274 274 275 276 277 278 279 280 282 283 284 285 286 287 288 288 288 289 290 291 293 294 295 295 295 296 296 296 297 295 295 295 296 296 296 297 297 296 296 296 296 295 295 294 292 292
320 319 319 319 320 320 321 322 324 324 324 325 331 338 339 338 343 346 345 342 339 332 316 297 281 266 257 258 260 261 259 259 260 259 261 263 266 269 272 273 274 275 276 277 278 278 279 280 281 282 283 284 285 286 286 287 288 288 289 290 292 293 294 295 296 295 295 295 296 297 297 296 296 297 297 298 298 298 297 297 297 297 296 295 294 293 293 292
322 321 321 323 324 324 325 327 328 328 328 327 333 341 344 345 347 350 353 356 355 349 331 300 285 277 269 263 262 263 263 262 262 263 264 265 268 270 272 275 277 278 280 280 280 281 282 283 284 284 285 286 286 287 288 289 290 291 292 293 294 295 295 295 295 295 295 295 296 297 297 297 297 297 298 298 298 298 298 298 298 297 296 295 294 294 294 293
322 322 324 326 327 328 328 331 334 335 335 335 339 346 352 355 356 353 359 4 359 353 344 314 291 286 285 278 272 269 267 267 267 267 269 270 272 274 275 277 279 281 282 283 283 284 285 286 286 287 287 288 289 289 290 291 292 293 294 294 294 294 294 294 294 294 295 295 296 298 297 297 297 297 298 298 298 298 298 298 298 297 296 296 296 296 295 294
322 323 325 327 329 331 333 338 342 343 345 349 351 355 359 4 5 357 354 353 343 341 337 320 302 295 296 292 285 281 276 275 275 275 276 277 278 279 280 281 282 284 285 285 286 287 287 288 288 289 290 290 291 292 292 293 293 294 294 294 294 294 294 294 295 296 296 297 298 298 297 297 297 298 299 299 299 299 299 299 299 298 297 297 297 297 296 295
323 324 326 329 332 337 343 348 349 351 357 2 5 6 6 8 12 10 8 3 351 343 335 327 319 310 308 306 302 299 295 291 288 286 285 285 285 285 286 286 287 287 287 288 288 289 290 290 291 292 292 293 293 293 293 294 294 294 294 295 295 295 295 295 296 297 298 298 299 299 298 298 298 299 300 300 300 300 300 300 299 299 299 298 298 297 296 295
326 327 329 333 337 345 352 354 354 359 5 8 10 12 11 11 12 14 14 13 9 4 355 348 342 332 324 321 320 316 310 304 298 295 292 291 290 289 289 289 289 290 290 291 292 292 293 293 294 294 294 294 295 295 295 295 295 296 296 296 296 297 297 297 298 299 300 300 300 299 299 299 299 301 302 301 301 301 301 301 300 299 299 298 297 297 297 296
330 332 333 336 342 349 354 355 357 3 7 9 11 11 10 10 10 10 7 4 3 359 350 340 332 325 319 316 314 310 306 302 300 297 295 294 294 294 293 293 294 294 294 295 295 295 296 296 296 296 295 296 296 296 297 297 297 298 298 299 299 300 300 300 300 301 301 301 301 300 301 301 302 304 304 303 303 303 302 301 300 300 299 298 298 298 298 298
332 331 331 336 343 348 353 358 1 2 4 5 6 5 4 3 1 1 359 354 349 342 334 326 320 316 314 312 310 308 306 305 302 300 299 298 299 298 298 297 297 297 296 295 295 295 296 297 296 297 297 298 298 298 298 299 299 300 301 302 303 303 303 302 303 303 303 303 303 304 305 305 306 306 305 304 304 304 303 302 301 300 300 300 300 299 299 298
332 329 329 336 342 350 357 1 2 360 358 360 360 358 357 353 349 348 347 343 339 333 326 321 317 315 314 313 312 310 309 308 306 305 304 303 302 301 300 300 299 298 297 297 296 296 297 298 298 298 299 299 299 300 300 301 302 303 304 304 304 305 304 304 305 305 305 305 306 307 306 306 306 305 305 305 305 303 302 302 301 300 300 300 300 299 298 297
333 329 330 338 348 359 4 2 1 358 355 354 354 351 348 345 342 341 340 338 335 333 330 326 323 320 318 315 314 313 311 311 309 308 307 306 305 304 304 303 302 301 300 300 299 299 300 301 301 301 302 302 302 302 303 304 304 304 305 305 306 306 306 307 307 307 307 307 307 307 306 306 306 305 305 306 305 304 303 302 301 301 301 301 300 299 298 296
339 336 338 352 7 11 5 1 357 354 353 351 350 347 344 341 339 337 337 336 333 332 331 328 325 323 321 318 317 316 315 314 313 312 311 309 308 308 307 305 304 304 303 303 302 302 302 303 304 305 305 304 304 305 306 306 306 307 308 309 309 309 309 308 308 308 308 307 307 307 307 307 306 306 307 307 306 305 304 303 303 303 303 302 300 299 297 296
350 355 5 20 21 12 2 358 353 349 348 345 344 344 340 338 337 335 335 333 331 329 327 325 324 323 322 320 320 320 318 316 315 313 312 310 310 309 308 307 306 306 305 305 304 304 303 305 307 307 307 306 307 308 309 309 309 310 311 311 310 310 309 309 308 309 308 307 307 307 307 307 307 307 308 308 307 305 305 305 305 304 303 302 300 298 297 297
9 29 48 37 15 2 356 353 349 345 342 341 341 340 337 335 334 333 332 330 328 327 325 324 323 323 323 321 321 320 318 317 315 314 313 311 311 310 308 308 307 307 307 306 306 306 307 309 311 311 310 310 310 311 311 311 311 312 312 312 311 310 310 310 310 310 309 308 308 308 309 309 309 310 311 309 307 307 307 307 306 304 303 301 300 299 298 297
24 48 53 29 3 350 347 346 344 340 339 339 338 337 335 333 332 330 329 328 327 327 326 326 325 325 324 322 320 319 317 316 315 314 313 312 311 310 309 309 309 309 309 309 310 311 311 313 315 315 314 313 313 313 313 313 313 314 314 313 312 311 311 310 310 310 310 309 308 309 310 311 312 313 312 309 308 309 308 307 305 303 301 300 300 299 299 299
13 23 11 360 348 341 339 340 338 336 336 337 336 334 333 331 330 329 329 329 330 329 328 327 325 323 322 320 319 317 316 315 315 314 314 313 312 312 312 312 312 312 313 313 313 314 314 315 316 317 317 316 316 315 315 315 316 316 314 313 312 311 311 311 310 310 309 309 309 310 311 313 315 314 311 309 310 308 306 305 303 302 301 301 300 300 300 301
334 334 329 330 332 332 333 335 335 333 334 335 333 332 332 331 332 332 332 332 332 330 328 327 325 322 321 320 318 317 317 316 317 317 316 316 316 316 316 316 316 316 316 316 317 317 317 318 319 320 320 319 317 316 316 317 317 317 314 313 313 312 312 311 311 311 310 310 311 311 312 315 316 311 309 309 308 306 305 304 303 303 302 302 302 302 302 302
319 312 312 318 322 325 328 331 332 331 332 332 332 332 332 333 333 333 332 332 330 329 326 324 323 321 320 320 320 320 321 321 321 321 320 320 320 320 320 320 319 319 319 320 321 321 321 321 321 323 323 320 318 318 318 319 319 317 315 315 315 314 313 313 313 313 312 312 312 311 313 316 313 309 309 308 306 306 305 305 304 304 304 303 303 303 302 302
325 321 319 319 321 323 327 329 329 330 331 331 332 332 333 333 333 331 330 328 327 326 324 324 324 324 325 326 326 326 326 325 324 323 323 322 323 323 324 324 324 324 324 325 325 325 324 322 323 324 324 321 319 320 321 321 320 318 317 316 316 314 314 314 314 313 313 313 313 312 313 313 310 309 309 307 307 307 306 305 305 304 304 303 303 303 302 302
347 339 333 329 328 327 327 328 329 330 330 332 333 332 332 332 331 329 328 327 327 327 328 329 330 331 331 331 330 329 329 327 327 327 327 328 329 329 329 329 328 328 328 328 327 327 327 326 326 326 325 322 320 321 321 321 320 318 318 317 315 314 314 314 314 313 314 314 314 312 312 312 310 309 308 307 307 306 305 305 304 304 303 303 303 302 302 301
1 350 342 337 332 328 328 328 330 331 332 332 333 332 332 332 332 332 331 332 334 334 335 336 336 336 335 334 335 335 335 334 334 335 335 334 334 333 332 331 331 330 330 330 330 330 329 328 327 327 325 323 322 323 323 322 321 320 319 317 315 315 316 315 315 315 315 316 315 312 310 311 310 308 308 307 307 306 306 305 305 304 304 303 303 302 301 301
356 349 341 337 332 330 330 331 332 333 333 333 334 335 336 337 338 340 340 340 341 341 342 342 342 342 342 342 343 343 342 341 340 339 338 336 335 334 333 332 331 331 330 330 330 329 329 327 326 327 325 322 322 323 322 321 321 321 320 318 316 317 318 317 317 317 316 315 314 311 309 310 310 308 308 308 308 307 307 306 305 305 304 304 303 303 302 302
354 347 341 338 336 334 334 334 335 336 338 340 342 344 346 347 347 348 349 350 351 351 352 351 351 351 350 349 348 347 345 344 341 340 339 337 335 334 333 332 331 330 329 329 329 328 328 327 326 326 324 321 322 322 321 320 320 320 320 318 317 318 319 318 318 317 315 314 313 311 310 311 311 310 310 309 309 308 308 308 307 306 305 305 304 304 304 303
350 346 343 341 339 338 338 340 343 346 348 351 353 355 356 357 359 360 1 2 2 0 359 357 355 354 352 350 348 345 344 342 340 339 337 336 334 333 332 330 330 329 328 328 328 327 327 326 325 326 325 322 322 321 320 320 320 320 320 319 318 319 319 319 318 316 315 314 313 312 313 313 312 311 311 311 310 310 309 308 308 307 306 306 305 305 305 305
349 346 344 342 343 346 350 353 356 360 2 4 7 9 10 12 12 11 10 8 7 4 0 357 355 352 349 347 345 342 341 339 338 337 335 334 333 332 331 330 328 328 328 328 327 326 326 326 325 326 326 323 322 321 321 320 321 321 320 319 319 319 319 319 317 316 316 315 314 314 315 314 313 312 312 312 311 311 310 309 309 308 307 307 307 308 308 308
349 348 349 353 358 2 6 9 13 16 18 21 22 23 21 19 17 14 10 7 4 1 357 353 351 348 346 344 342 340 339 338 337 335 334 333 331 331 331 330 329 328 328 328 327 327 326 326 325 326 326 324 323 322 322 321 321 321 320 319 319 319 319 319 318 317 317 317 316 316 315 315 314 314 314 313 312 312 311 310 310 310 310 310 310 311 311 311
357 2 6 12 16 19 23 28 31 32 32 31 28 25 21 17 13 9 5 2 359 356 352 349 347 344 343 341 339 337 337 336 335 334 333 332 331 330 330 330 329 329 329 328 328 327 326 326 325 324 325 324 323 322 322 322 322 321 320 319 319 320 321 321 320 320 319 318 318 317 317 317 317 316 315 314 314 313 313 312 312 312 313 313 313 313 313 312
17 23 26 30 35 38 41 42 41 38 34 30 26 21 16 12 8 4 1 357 353 350 348 345 342 341 340 338 337 335 335 334 333 333 333 332 331 331 330 330 330 329 329 328 327 327 325 325 324 323 323 323 322 322 323 322 322 322 321 320 321 322 323 322 322 322 321 320 320 320 320 319 318 317 317 316 316 315 315 315 315 315 315 315 315 315 315 315
Height
5822 5822 5823 5823 5824 5824 5824 5824 5825 5825 5826 5826 5826 5826 5826 5827 5827 5827 5827 5827 5827 5827 5827 5826 5826 5826 5826 5826 5826 5826 5826 5826 5825 5825 5825 5825 5824 5824 5824 5824 5824 5823 5823 5823 5822 5822 5821 5821 5820 5820 5819 5819 5818 5817 5817 5816 5815 5814 5813 5812 5811 5811 5810 5809 5809 5807 5806 5805 5804 5803 5802 5801 5800 5799 5798 5797 5796 5795 5794 5793 5792 5791 5790 5789 5787 5786 5785 5783
5821 5822 5822 5823 5823 5824 5824 5824 5824 5825 5825 5825 5825 5826 5826 5826 5826 5826 5826 5826 5826 5826 5826 5826 5826 5825 5825 5825 5825 5825 5825 5825 5825 5824 5824 5824 5823 5823 5823 5822 5822 5822 5822 5821 5821 5820 5820 5819 5819 5818 5818 5817 5817 5816 5815 5814 5813 5812 5811 5810 5809 5809 5808 5807 5806 5805 5804 5803 5802 5801 5800 5799 5798 5797 5796 5795 5794 5793 5792 5791 5790 5789 5788 5787 5785 5784 5782 5781
5821 5821 5822 5822 5822 5823 5823 5823 5823 5824 5824 5824 5824 5824 5825 5825 5825 5825 5825 5825 5825 5825 5825 5825 5825 5824 5824 5824 5824 5824 5824 5824 5824 5823 5823 5822 5822 5822 5821 5821 5821 5820 5820 5820 5819 5819 5818 5818 5817 5817 5816 5816 5815 5814 5813 5812 5811 5810 5809 5808 5808 5807 5806 5805 5804 5803 5801 5800 5799 5798 5798 5797 5796 5795 5794 5793 5792 5790 5790 5789 5788 5787 5785 5784 5782 5781 5779 5777
5820 5820 5821 5821 5821 5822 5822 5822 5822 5822 5823 5823 5823 5823 5823 5823 5823 5824 5824 5824 5824 5824 5824 5824 5823 5823 5823 5823 5823 5823 5823 5823 5822 5822 5822 5821 5821 5820 5820 5819 5819 5819 5818 5818 5818 5817 5817 5816 5816 5815 5814 5814 5813 5812 5811 5810 5809 5808 5807 5806 5805 5804 5803 5802 5801 5800 5799 5798 5797 5796 5795 5794 5793 5792 5791 5790 5789 5788 5787 5786 5785 5784 5782 5781 5779 5778 5776 5774
5819 5819 5820 5820 5820 5820 5821 5821 5821 5821 5821 5821 5821 5821 5821 5821 5821 5822 5822 5822 5822 5822 5822 5822 5822 5821 5821 5821 5821 5821 5821 5821 5821 5821 5820 5820 5819 5818 5818 5817 5817 5817 5816 5816 5816 5815 5815 5814 5814 5813 5812 5812 5811 5810 5810 5809 5808 5806 5805 5804 5803 5802 5801 5800 5799 5798 5796 5795 5794 5793 5792 5791 5790 5789 5788 5787 5786 5785 5784 5782 5781 5780 5779 5778 5776 5774 5773 5771
5818 5818 5819 5819 5819 5819 5819 5819 5820 5820 5820 5819 5820 5819 5819 5820 5820 5820 5820 5820 5820 5820 5820 5820 5820 5819 5819 5819 5819 5819 5819 5819 5819 5818 5818 5818 5817 5817 5816 5816 5815 5815 5814 5814 5813 5813 5812 5812 5811 5811 5810 5809 5809 5808 5807 5806 5805 5804 5803 5802 5801 5799 5798 5797 5796 5795 5794 5793 5792 5791 5790 5789 5788 5786 5785 5784 5783 5781 5780 5779 5778 5777 5775 5774 5772 5771 5769 5767
5817 5817 5817 5818 5818 5818 5818 5818 5818 5818 5818 5818 5818 5818 5818 5818 5818 5818 5818 5818 5818 5818 5818 5818 5818 5817 5817 5817 5816 5816 5816 5816 5816 5816 5816 5816 5815 5814 5814 5813 5813 5813 5812 5812 5811 5810 5810 5809 5809 5808 5808 5807 5806 5805 5804 5803 5802 5801 5800 5799 5798 5797 5796 5795 5794 5793 5792 5791 5790 5789 5787 5786 5785 5784 5782 5781 5780 5778 5777 5776 5774 5773 5771 5770 5768 5767 5765 5763
5815 5816 5816 5816 5817 5817 5817 5817 5817 5817 5817 5817 5817 5817 5817 5817 5817 5817 5816 5816 5816 5816 5816 5816 5816 5815 5815 5814 5814 5814 5814 5813 5813 5813 5813 5813 5812 5812 5811 5811 5810 5810 5809 5809 5809 5808 5807 5807 5806 5806 5805 5805 5804 5803 5802 5801 5800 5799 5798 5797 5796 5795 5794 5793 5792 5791 5790 5788 5787 5786 5784 5783 5782 5781 5779 5778 5777 5775 5773 5772 5771 5769 5767 5766 5764 5762 5761 5759
5814 5814 5815 5815 5815 5815 5816 5816 5816 5816 5816 5816 5816 5816 5816 5815 5815 5815 5814 5814 5814 5813 5813 5813 5813 5812 5812 5812 5811 5811 5811 5810 5810 5810 5810 5810 5810 5809 5809 5808 5808 5807 5807 5806 5806 5805 5805 5804 5804 5803 5803 5802 5802 5801 5800 5798 5797 5796 5796 5795 5794 5793 5791 5790 5789 5788 5787 5785 5784 5783 5781 5780 5779 5777 5776 5775 5773 5771 5770 5768 5766 5765 5763 5761 5759 5758 5756 5754
5813 5813 5813 5813 5814 5814 5814 5814 5814 5814 5814 5814 5814 5814 5814 5813 5813 5813 5812 5812 5811 5811 5811 5810 5810 5809 5809 5809 5808 5808 5807 5807 5807 5807 5807 5807 5807 5806 5806 5806 5805 5804 5804 5803 5803 5803 5802 5802 5801 5801 5800 5800 5799 5798 5797 5796 5795 5794 5793 5792 5791 5790 5789 5788 5786 5785 5783 5782 5781 5779 5778 5776 5775 5773 5772 5771 5769 5767 5765 5764 5762 5760 5758 5756 5755 5753 5752 5749
5812 5812 5812 5812 5812 5812 5813 5813 5813 5813 5813 5813 5813 5813 5812 5812 5811 5811 5810 5810 5809 5809 5808 5808 5807 5807 5806 5806 5805 5805 5804 5804 5804 5804 5804 5803 5803 5803 5803 5803 5802 5802 5801 5801 5800 5800 5799 5799 5798 5798 5797 5797 5796 5795 5795 5794 5793 5792 5791 5790 5789 5788 5786 5785 5783 5781 5780 5779 5777 5776 5774 5773 5771 5769 5768 5766 5764 5762 5761 5759 5758 5756 5753 5752 5750 5749 5746 5744
5811 5811 5811 5811 5811 5811 5811 5811 5811 5812 5812 5812 5811 5811 5811 5810 5810 5809 5809 5808 5807 5807 5806 5805 5805 5804 5804 5803 5802 5802 5801 5801 5800 5800 5800 5800 5800 5800 5800 5800 5799 5799 5798 5798 5797 5797 5796 5796 5796 5795 5795 5794 5793 5793 5792 5791 5790 5789 5788 5787 5786 5785 5783 5782 5780 5778 5777 5775 5774 5772 5771 5769 5767 5765 5764 5762 5760 5758 5756 5755 5753 5751 5749 5747 5746 5744 5741 5739
5810 5811 5811 5811 5811 5811 5811 5810 5810 5810 5810 5810 5810 5810 5809 5809 5808 5807 5807 5806 5805 5805 5804 5803 5802 5801 5801 5800 5799 5799 5798 5798 5797 5797 5796 5796 5796 5796 5796 5796 5797 5796 5796 5795 5795 5794 5794 5793 5793 5792 5792 5791 5791 5790 5789 5788 5787 5786 5785 5784 5783 5782 5780 5779 5777 5775 5773 5771 5770 5768 5767 5766 5763 5761 5760 5758 5757 5754 5752 5750 5749 5747 5745 5743 5742 5739 5736 5734
5809 5810 5810 5810 5810 5810 5809 5809 5809 5809 5809 5809 5809 5808 5808 5807 5806 5806 5805 5804 5803 5802 5801 5800 5799 5798 5798 5797 5796 5796 5795 5794 5794 5793 5793 5793 5793 5793 5793 5793 5793 5793 5793 5793 5792 5792 5791 5791 5790 5789 5789 5788 5788 5787 5786 5785 5784 5783 5782 5781 5780 5779 5777 5776 5773 5772 5769 5768 5766 5765 5763 5763 5759 5757 5757 5755 5753 5751 5748 5746 5744 5741 5739 5738 5737 5734 5731 5728
5808 5808 5809 5808 5808 5808 5808 5808 5808 5808 5808 5808 5807 5807 5806 5805 5805 5804 5803 5802 5801 5800 5799 5797 5796 5795 5795 5794 5793 5793 5792 5791 5791 5790 5790 5790 5789 5789 5789 5790 5790 5790 5790 5790 5789 5789 5788 5788 5787 5787 5786 5786 5785 5784 5783 5782 5781 5780 5779 5778 5777 5775 5774 5772 5770 5768 5766 5764 5763 5761 5759 5759 5756 5753 5753 5751 5749 5747 5744 5741 5738 5736 5733 5732 5731 5728 5725 5722
5807 5807 5807 5807 5807 5807 5807 5807 5807 5807 5806 5806 5805 5805 5804 5803 5802 5801 5800 5799 5798 5797 5796 5794 5793 5792 5792 5791 5790 5790 5789 5788 5788 5787 5787 5787 5786 5786 5786 5787 5787 5787 5787 5787 5786 5786 5785 5785 5784 5784 5783 5783 5782 5781 5779 5779 5778 5776 5775 5774 5773 5772 5770 5768 5766 5764 5762 5761 5759 5757 5756 5755 5752 5750 5748 5747 5745 5742 5740 5737 5733 5730 5727 5726 5724 5722 5719 5716
5807 5807 5807 5807 5807 5806 5806 5806 5805 5805 5804 5804 5803 5802 5801 5800 5799 5797 5796 5795 5794 5793 5792 5791 5789 5789 5788 5788 5787 5786 5786 5786 5785 5785 5785 5784 5784 5784 5784 5784 5784 5784 5784 5784 5783 5783 5782 5782 5781 5781 5781 5780 5779 5777 5776 5775 5774 5773 5772 5770 5769 5768 5766 5765 5762 5760 5758 5757 5755 5753 5752 5750 5747 5745 5744 5742 5740 5737 5735 5732 5728 5724 5722 5720 5718 5715 5713 5710
5806 5806 5806 5806 5806 5805 5805 5804 5804 5803 5802 5801 5800 5799 5798 5797 5795 5794 5792 5791 5790 5789 5788 5787 5786 5785 5784 5784 5784 5783 5783 5783 5782 5782 5782 5782 5782 5782 5781 5781 5781 5781 5781 5781 5780 5780 5779 5779 5778 5778 5778 5776 5776 5774 5773 5772 5771 5769 5768 5767 5765 5764 5763 5761 5758 5756 5755 5753 5751 5749 5747 5745 5742 5740 5740 5738 5734 5732 5729 5726 5723 5719 5716 5713 5711 5709 5706 5703
5805 5805 5805 5805 5804 5804 5804 5803 5802 5801 5800 5799 5798 5797 5796 5794 5792 5790 5788 5787 5786 5784 5783 5783 5782 5781 5780 5780 5780 5780 5780 5780 5780 5779 5779 5779 5779 5779 5779 5779 5778 5778 5778 5778 5777 5777 5776 5776 5776 5775 5774 5773 5772 5771 5769 5769 5768 5766 5764 5763 5761 5760 5759 5756 5753 5752 5750 5748 5746 5743 5741 5739 5737 5734 5734 5732 5729 5726 5723 5720 5717 5714 5710 5707 5705 5702 5699 5696
5805 5804 5804 5804 5803 5803 5802 5801 5800 5799 5798 5797 5796 5794 5792 5791 5788 5786 5785 5783 5781 5780 5779 5778 5777 5777 5777 5777 5777 5777 5777 5777 5777 5777 5777 5777 5776 5776 5776 5776 5776 5775 5775 5775 5774 5774 5774 5773 5773 5772 5771 5770 5769 5768 5766 5765 5764 5762 5761 5759 5757 5756 5755 5752 5749 5748 5746 5743 5741 5738 5735 5733 5732 5729 5727 5726 5723 5720 5717 5714 5711 5708 5704 5701 5698 5696 5693 5690
5804 5803 5803 5803 5802 5801 5800 5799 5798 5797 5796 5795 5793 5791 5789 5787 5785 5783 5781 5779 5777 5775 5774 5773 5773 5773 5773 5773 5773 5774 5774 5774 5775 5775 5775 5774 5774 5774 5774 5773 5773 5772 5772 5772 5772 5771 5771 5771 5770 5769 5767 5766 5765 5764 5763 5762 5760 5759 5757 5756 5754 5752 5750 5748 5745 5743 5741 5738 5736 5732 5729 5728 5727 5723 5721 5719 5716 5713 5711 5707 5704 5701 5698 5695 5692 5689 5686 5683
5803 5802 5802 5801 5800 5800 5799 5798 5796 5795 5793 5792 5790 5788 5786 5784 5782 5780 5778 5775 5772 5771 5770 5770 5769 5769 5770 5770 5770 5771 5771 5772 5772 5772 5772 5772 5772 5772 5772 5771 5771 5770 5770 5769 5769 5769 5768 5768 5767 5766 5764 5763 5762 5761 5759 5758 5756 5755 5753 5751 5750 5748 5746 5744 5741 5738 5736 5733 5730 5726 5723 5721 5721 5718 5715 5712 5710 5707 5704 5701 5698 5694 5691 5688 5685 5682 5679 5676
5802 5801 5801 5800 5799 5798 5797 5796 5794 5793 5791 5789 5787 5785 5783 5781 5778 5776 5774 5772 5769 5767 5767 5767 5767 5767 5767 5768 5769 5769 5769 5769 5770 5770 5770 5770 5770 5770 5770 5770 5769 5768 5768 5767 5767 5766 5766 5765 5764 5763 5762 5760 5759 5758 5756 5754 5753 5751 5749 5747 5745 5743 5741 5739 5736 5733 5730 5727 5724 5720 5717 5715 5715 5712 5709 5706 5703 5701 5698 5695 5691 5688 5684 5681 5678 5675 5672 5669
5801 5800 5799 5798 5797 5796 5795 5794 5792 5790 5789 5787 5785 5783 5781 5779 5777 5774 5771 5769 5767 5766 5765 5765 5765 5766 5766 5767 5767 5767 5767 5767 5768 5768 5768 5768 5768 5768 5768 5768 5767 5766 5766 5765 5764 5764 5763 5762 5761 5760 5759 5757 5756 5754 5752 5751 5749 5747 5745 5742 5740 5738 5735 5733 5730 5727 5725 5722 5718 5714 5710 5709 5708 5705 5702 5700 5697 5694 5691 5688 5684 5681 5677 5674 5672 5669 5665 5663
5799 5799 5798 5797 5796 5795 5793 5792 5790 5789 5787 5786 5784 5782 5780 5777 5775 5772 5770 5767 5766 5764 5764 5764 5765 5765 5765 5766 5766 5766 5766 5766 5766 5767 5767 5767 5766 5766 5766 5765 5765 5764 5764 5763 5762 5762 5761 5760 5758 5757 5756 5754 5752 5751 5749 5747 5745 5743 5741 5738 5736 5733 5730 5727 5725 5722 5719 5716 5714 5709 5704 5702 5702 5699 5696 5693 5689 5687 5683 5680 5677 5674 5670 5667 5665 5663 5659 5656
5799 5798 5797 5796 5794 5793 5792 5790 5789 5787 5786 5784 5783 5781 5779 5776 5774 5771 5769 5767 5765 5765 5764 5765 5765 5765 5765 5765 5765 5765 5765 5765 5765 5765 5765 5765 5764 5764 5764 5763 5763 5762 5762 5761 5760 5759 5758 5757 5755 5754 5752 5750 5748 5747 5745 5743 5741 5739 5736 5734 5731 5728 5725 5723 5720 5716 5714 5711 5709 5705 5699 5695 5695 5692 5689 5685 5682 5679 5676 5673 5670 5667 5664 5661 5658 5656 5653 5650
5797 5796 5795 5794 5793 5792 5790 5789 5788 5786 5785 5783 5782 5780 5778 5775 5773 5771 5769 5767 5766 5765 5765 5765 5765 5765 5764 5764 5764 5764 5764 5764 5763 5763 5763 5763 5763 5762 5762 5761 5761 5760 5759 5758 5757 5756 5755 5753 5752 5750 5748 5747 5745 5743 5740 5738 5736 5734 5731 5729 5726 5723 5721 5718 5715 5712 5709 5707 5704 5701 5695 5690 5688 5686 5682 5678 5675 5672 5669 5666 5663 5660 5657 5654 5652 5650 5647 5644
5796 5795 5794 5793 5792 5791 5790 5788 5787 5785 5784 5782 5781 5779 5777 5774 5772 5771 5769 5768 5767 5767 5766 5766 5766 5765 5765 5764 5763 5763 5763 5762 5762 5762 5762 5761 5761 5760 5760 5759 5758 5758 5757 5755 5754 5753 5752 5750 5748 5746 5745 5742 5741 5738 5736 5734 5731 5729 5726 5724 5721 5718 5716 5713 5711 5707 5704 5702 5699 5695 5690 5685 5682 5680 5676 5672 5669 5666 5663 5660 5657 5654 5651 5648 5646 5643 5640 5638
5795 5794 5793 5793 5791 5790 5789 5787 5786 5785 5783 5782 5780 5778 5777 5774 5773 5771 5770 5769 5768 5767 5767 5766 5766 5765 5764 5764 5763 5762 5762 5761 5761 5761 5760 5760 5759 5758 5758 5757 5756 5755 5754 5753 5751 5750 5748 5746 5744 5743 5740 5738 5736 5734 5732 5729 5727 5724 5722 5719 5716 5714 5711 5709 5705 5702 5698 5695 5693 5689 5684 5679 5676 5674 5671 5666 5664 5661 5657 5654 5651 5648 5645 5642 5640 5637 5634 5631
5794 5793 5793 5792 5791 5789 5788 5787 5785 5784 5783 5781 5780 5778 5777 5775 5773 5772 5770 5769 5768 5768 5767 5766 5766 5765 5764 5763 5762 5762 5761 5761 5760 5759 5759 5758 5757 5757 5755 5754 5754 5752 5751 5750 5748 5746 5744 5743 5741 5738 5736 5734 5732 5730 5727 5725 5722 5720 5717 5714 5712 5709 5706 5704 5700 5696 5692 5689 5686 5682 5678 5673 5670 5669 5666 5661 5658 5656 5652 5649 5646 5643 5640 5637 5634 5631 5628 5625
5793 5793 5792 5791 5790 5789 5787 5786 5786 5784 5783 5781 5780 5778 5777 5775 5774 5773 5771 5770 5769 5768 5767 5767 5766 5765 5764 5763 5762 5761 5761 5760 5759 5758 5758 5757 5755 5755 5753 5752 5751 5750 5748 5746 5745 5743 5741 5739 5737 5735 5732 5730 5728 5725 5723 5721 5718 5715 5713 5709 5706 5703 5700 5697 5694 5691 5687 5683 5680 5676 5672 5668 5665 5663 5660 5656 5653 5650 5647 5644 5641 5638 5635 5631 5628 5626 5622 5619
5793 5792 5791 5790 5789 5788 5787 5787 5786 5784 5783 5781 5780 5779 5777 5776 5775 5773 5772 5771 5770 5769 5768 5767 5766 5765 5764 5763 5762 5761 5760 5759 5758 5757 5756 5755 5753 5752 5751 5750 5748 5747 5745 5743 5741 5739 5737 5735 5733 5731 5729 5727 5724 5722 5719 5716 5714 5711 5708 5704 5700 5697 5693 5691 5688 5684 5681 5677 5674 5671 5667 5663 5660 5658 5655 5651 5648 5645 5642 5639 5636 5632 5629 5626 5623 5620 5616 5613
5792 5792 5791 5790 5789 5788 5788 5787 5785 5784 5783 5781 5780 5779 5778 5777 5775 5774 5773 5771 5770 5769 5768 5766 5765 5764 5763 5762 5761 5760 5758 5757 5756 5755 5754 5753 5751 5750 5748 5747 5745 5744 5742 5741 5739 5737 5734 5732 5730 5728 5726 5723 5720 5718 5715 5712 5709 5706 5702 5698 5695 5690 5686 5684 5682 5678 5675 5672 5668 5665 5661 5658 5655 5653 5650 5646 5643 5640 5636 5633 5630 5626 5623 5620 5617 5614 5610 5607
5792 5791 5791 5790 5789 5788 5788 5787 5785 5784 5783 5782 5780 5779 5778 5777 5776 5774 5773 5771 5770 5769 5768 5766 5765 5764 5762 5761 5760 5759 5757 5756 5755 5753 5752 5751 5749 5747 5746 5744 5743 5741 5739 5737 5736 5734 5732 5730 5727 5725 5722 5719 5716 5713 5710 5707 5704 5700 5697 5693 5690 5686 5682 5679 5676 5672 5669 5666 5663 5660 5656 5653 5650 5648 5645 5642 5639 5635 5631 5628 5624 5621 5618 5615 5611 5608 5604 5601
5792 5791 5791 5790 5789 5789 5788 5786 5785 5784 5783 5782 5780 5779 5778 5777 5776 5774 5773 5771 5770 5769 5767 5766 5764 5763 5762 5760 5759 5757 5756 5755 5753 5751 5750 5748 5747 5745 5743 5742 5740 5738 5736 5734 5732 5731 5729 5727 5724 5721 5718 5715 5711 5708 5705 5701 5698 5695 5692 5689 5686 5682 5678 5674 5671 5667 5663 5660 5658 5656 5652 5649 5645 5642 5640 5637 5634 5630 5626 5622 5619 5615 5612 5609 5605 5602 5598 5594
5791 5791 5790 5790 5789 5788 5787 5786 5785 5784 5783 5782 5780 5779 5778 5777 5775 5774 5772 5771 5770 5768 5766 5765 5763 5762 5760 5759 5757 5756 5754 5753 5751 5750 5748 5746 5745 5743 5741 5739 5737 5735 5733 5731 5729 5726 5724 5722 5719 5716 5713 5710 5706 5703 5700 5697 5693 5690 5687 5684 5680 5677 5673 5669 5666 5663 5659 5655 5653 5651 5647 5644 5640 5636 5634 5631 5627 5624 5620 5616 5613 5609 5606 5602 5599 5595 5591 5587
5791 5791 5790 5789 5789 5788 5787 5786 5785 5784 5783 5782 5780 5779 5778 5777 5775 5774 5772 5770 5769 5767 5766 5764 5763 5761 5759 5757 5756 5754 5753 5751 5750 5748 5746 5744 5742 5741 5739 5736 5734 5732 5729 5727 5724 5721 5719 5718 5716 5712 5708 5705 5702 5699 5696 5692 5689 5685 5682 5679 5675 5672 5668 5664 5660 5658 5654 5650 5648 5645 5642 5639 5635 5631 5629 5626 5621 5617 5614 5610 5606 5603 5599 5596 5592 5588 5584 5580
5791 5790 5790 5789 5789 5788 5787 5786 5785 5784 5783 5782 5780 5779 5777 5776 5775 5773 5771 5770 5768 5767 5765 5763 5761 5760 5758 5756 5755 5753 5751 5750 5748 5746 5744 5742 5740 5738 5735 5733 5731 5728 5725 5722 5720 5717 5714 5713 5712 5708 5704 5701 5698 5695 5691 5688 5685 5682 5678 5675 5671 5667 5664 5660 5656 5652 5649 5644 5641 5639 5637 5633 5630 5627 5623 5619 5615 5611 5607 5604 5600 5596 5593 5589 5585 5581 5577 5573
5791 5790 5790 5789 5788 5788 5787 5786 5785 5784 5783 5781 5780 5778 5777 5776 5774 5772 5771 5769 5767 5765 5764 5762 5760 5759 5757 5755 5754 5752 5750 5748 5746 5744 5742 5739 5737 5735 5732 5729 5727 5724 5722 5719 5716 5713 5710 5708 5707 5704 5700 5697 5694 5691 5687 5684 5681 5678 5674 5670 5667 5663 5660 5656 5652 5648 5644 5639 5635 5633 5631 5628 5624 5621 5617 5612 5609 5605 5601 5598 5594 5590 5586 5582 5578 5574 5570 5565
5791 5790 5789 5789 5788 5788 5787 5786 5785 5784 5782 5781 5779 5778 5776 5775 5773 5771 5770 5768 5766 5765 5763 5761 5759 5758 5756 5754 5752 5750 5748 5746 5743 5741 5738 5736 5734 5731 5729 5726 5723 5721 5718 5716 5713 5710 5707 5704 5702 5700 5696 5693 5689 5686 5683 5680 5677 5674 5670 5666 5663 5659 5655 5652 5649 5645 5640 5635 5631 5627 5626 5624 5620 5615 5610 5606 5603 5600 5596 5592 5588 5584 5580 5576 5572 5567 5562 5557
5790 5790 5789 5789 5788 5788 5787 5786 5785 5783 5782 5780 5779 5777 5776 5774 5772 5770 5769 5767 5765 5763 5762 5760 5758 5756 5754 5752 5750 5748 5745 5742 5740 5738 5735 5733 5730 5728 5726 5723 5721 5718 5715 5712 5709 5707 5704 5701 5698 5696 5693 5690 5686 5683 5680 5677 5674 5670 5666 5662 5659 5655 5651 5647 5644 5641 5636 5631 5627 5623 5620 5620 5616 5610 5605 5602 5598 5594 5590 5586 5582 5578 5573 5569 5564 5559 5554 5549
5790 5790 5789 5788 5788 5787 5786 5785 5784 5783 5781 5780 5778 5776 5775 5773 5771 5769 5768 5766 5764 5762 5760 5758 5756 5754 5752 5749 5747 5745 5742 5740 5737 5735 5733 5730 5728 5725 5723 5720 5718 5715 5712 5709 5707 5704 5700 5698 5695 5693 5690 5686 5682 5679 5676 5673 5670 5666 5662 5658 5654 5650 5646 5642 5638 5636 5631 5627 5623 5618 5614 5614 5610 5604 5601 5597 5592 5588 5584 5580 5575 5570 5566 5561 5557 5552 5547 5542
5790 5789 5789 5788 5788 5787 5786 5785 5784 5782 5781 5779 5777 5775 5774 5772 5770 5768 5766 5764 5762 5760 5758 5756 5754 5751 5749 5747 5745 5742 5740 5738 5735 5733 5731 5728 5726 5723 5720 5718 5715 5712 5709 5707 5704 5701 5698 5695 5692 5690 5688 5684 5680 5676 5673 5670 5667 5663 5658 5655 5650 5646 5642 5638 5634 5630 5627 5623 5618 5613 5610 5608 5604 5599 5595 5591 5586 5582 5578 5573 5569 5564 5560 5555 5550 5545 5540 5535
5790 5789 5789 5788 5788 5787 5786 5784 5783 5781 5780 5778 5776 5774 5773 5771 5769 5767 5765 5763 5761 5758 5756 5754 5752 5749 5747 5745 5743 5741 5739 5736 5734 5731 5729 5726 5723 5721 5718 5715 5713 5710 5707 5704 5702 5699 5695 5692 5688 5685 5683 5680 5677 5674 5671 5668 5664 5659 5655 5650 5646 5642 5638 5634 5630 5626 5622 5619 5614 5608 5605 5602 5598 5593 5590 5585 5581 5577 5572 5567 5563 5558 5553 5548 5543 5538 5533 5527
5790 5790 5789 5788 5788 5786 5785 5784 5782 5780 5779 5777 5775 5773 5772 5770 5767 5765 5763 5761 5759 5757 5755 5752 5750 5748 5746 5744 5741 5739 5737 5734 5732 5729 5727 5724 5722 5719 5716 5714 5711 5708 5705 5702 5699 5696 5693 5689 5685 5682 5678 5674 5671 5668 5665 5662 5659 5655 5651 5646 5641 5637 5633 5629 5625 5621 5617 5614 5610 5603 5599 5597 5593 5588 5584 5580 5576 5572 5567 5561 5556 5551 5546 5541 5536 5531 5525 5519
5791 5790 5789 5788 5787 5786 5784 5783 5781 5779 5778 5776 5774 5772 5770 5768 5766 5764 5762 5760 5758 5756 5754 5751 5749 5747 5745 5742 5740 5738 5735 5733 5730 5728 5725 5722 5720 5717 5715 5712 5709 5706 5703 5700 5697 5694 5691 5687 5684 5680 5676 5670 5666 5663 5659 5656 5653 5650 5646 5641 5636 5632 5629 5624 5620 5616 5611 5608 5606 5600 5594 5591 5588 5582 5578 5574 5569 5565 5560 5554 5549 5544 5538 5533 5527 5522 5515 5509
5791 5790 5789 5788 5787 5785 5784 5782 5780 5778 5777 5775 5773 5771 5769 5767 5765 5763 5761 5759 5757 5755 5753 5751 5748 5746 5744 5742 5740 5737 5735 5732 5729 5727 5724 5721 5718 5715 5713 5710 5707 5703 5700 5697 5694 5691 5688 5685 5681 5678 5673 5668 5664 5661 5656 5652 5649 5646 5642 5637 5632 5628 5624 5620 5615 5612 5607 5603 5600 5596 5590 5586 5582 5576 5571 5567 5562 5557 5552 5547 5542 5536 5530 5525 5519 5512 5506 5499
5791 5790 5789 5787 5786 5785 5783 5781 5779 5777 5776 5774 5772 5770 5769 5767 5765 5763 5761 5759 5757 5755 5753 5750 5748 5746 5744 5741 5739 5737 5734 5732 5729 5726 5723 5720 5717 5714 5711 5707 5704 5701 5698 5694 5691 5688 5684 5681 5677 5675 5670 5665 5660 5657 5653 5648 5645 5641 5637 5632 5628 5623 5619 5615 5611 5607 5603 5598 5594 5590 5586 5580 5575 5570 5565 5560 5554 5550 5544 5539 5533 5528 5522 5516 5510 5503 5496 5488
5790 5789 5788 5787 5785 5784 5782 5780 5779 5777 5775 5774 5772 5770 5768 5767 5765 5763 5761 5759 5757 5755 5752 5750 5748 5746 5743 5741 5738 5735 5733 5730 5728 5725 5721 5718 5715 5712 5709 5705 5702 5698 5695 5691 5688 5684 5680 5677 5673 5670 5667 5661 5656 5653 5649 5645 5641 5636 5632 5628 5623 5619 5615 5611 5607 5602 5599 5594 5588 5583 5580 5575 5569 5564 5558 5553 5547 5542 5537 5531 5524 5518 5512 5506 5499 5492 5485 5477
5790 5789 5788 5786 5785 5783 5782 5780 5779 5777 5775 5774 5772 5771 5769 5767 5765 5763 5761 5759 5757 5755 5752 5750 5747 5745 5742 5739 5736 5733 5730 5727 5724 5722 5719 5716 5712 5709 5706 5702 5698 5695 5691 5687 5684 5680 5676 5673 5669 5666 5663 5658 5653 5648 5644 5640 5636 5632 5627 5623 5619 5615 5611 5607 5602 5598 5593 5589 5584 5578 5574 5570 5564 5558 5552 5546 5540 5534 5528 5522 5515 5508 5501 5494 5487 5480 5473 5467
5790 5789 5787 5786 5785 5783 5782 5781 5779 5778 5776 5775 5773 5771 5770 5768 5766 5764 5761 5759 5757 5754 5752 5749 5746 5743 5741 5738 5734 5731 5728 5725 5722 5718 5715 5712 5709 5705 5702 5698 5695 5691 5687 5684 5680 5676 5672 5669 5664 5661 5658 5654 5649 5645 5640 5635 5631 5627 5622 5618 5615 5611 5607 5602 5597 5592 5587 5583 5579 5574 5568 5562 5556 5551 5545 5539 5532 5525 5518 5511 5505 5498 5491 5483 5476 5470 5463 5456
5790 5789 5788 5786 5785 5784 5783 5781 5780 5779 5777 5776 5774 5772 5770 5768 5766 5764 5761 5759 5756 5754 5751 5748 5745 5742 5739 5736 5733 5729 5726 5723 5720 5716 5713 5709 5706 5702 5698 5695 5691 5687 5684 5680 5676 5672 5668 5664 5660 5656 5653 5649 5644 5640 5636 5631 5627 5622 5618 5614 5610 5606 5603 5598 5593 5587 5581 5575 5571 5566 5561 5555 5549 5543 5537 5531 5524 5517 5509 5501 5494 5488 5481 5474 5466 5459 5452 5446